Location: Brantley
(31.5822°N, 86.2569°W)
Time: 03:16:32
(UTC+00:00)

Vanguard 3 - Pass Details

Date: 22 February 2026
Orbit: 507 x 3205 km, 33.4° (Epoch: 7 March)

Event Time Altitude Azimuth Distance (km) Brightness Sun altitude
Rises 16:16:54 0° 199° (SSW) 7,124 12.3 41.8°
Reaches altitude 10° 16:23:31 10° 187° (S) 6,098 12.3 42.6°
Maximum altitude 16:36:22 23° 144° (SE) 4,678 12.6 44.0°
Drops below altitude 10° 16:46:49 10° 100° (E) 4,943 11.6 45.0°
Sets 16:51:16 0° 86° (E) 5,535 11.6 45.4°
